| time (UTC) | temp C | wind direction | speed KPH | gust KPH | rain 1hr cm | rain 24hr cm | rain mn cm | humidity % | barometer mb |
| 20260505140617 | 12 | 0.0 | 3.2 | 0.00 | 1.04 | 0.25 | 98 | 1013.6 | |
| 20260505140136 | 12 | 283 | 1.6 | 4.8 | 0.00 | 1.04 | 0.25 | 98 | 1013.7 |
| 20260505130116 | 12 | 0.0 | 0.0 | 0.00 | 1.04 | 0.25 | 98 | 1013.6 | |
| 20260505124616 | 12 | 283 | 1.6 | 1.6 | 0.00 | 1.04 | 0.25 | 98 | 1013.5 |
| 20260505124116 | 12 | 283 | 1.6 | 1.6 | 0.00 | 1.04 | 0.25 | 98 | 1013.5 |
| 20260505123617 | 12 | 0.0 | 0.0 | 0.00 | 1.04 | 0.25 | 98 | 1013.5 | |
| 20260505123117 | 12 | 0.0 | 0.0 | 0.00 | 1.04 | 0.25 | 98 | 1013.5 | |
| 20260505122617 | 12 | 0.0 | 0.0 | 0.00 | 1.04 | 0.25 | 98 | 1013.4 | |
| 20260505122116 | 12 | 0.0 | 0.0 | 0.00 | 1.04 | 0.25 | 98 | 1013.4 | |
| 20260505121616 | 12 | 0.0 | 0.0 | 0.00 | 1.04 | 0.25 | 98 | 1013.3 | |
| 20260505121116 | 12 | 0.0 | 0.0 | 0.00 | 1.04 | 0.25 | 98 | 1013.3 | |
| 20260505120616 | 12 | 0.0 | 0.0 | 0.00 | 1.04 | 0.25 | 98 | 1013.3 | |
| 20260505120116 | 11 | 0.0 | 0.0 | 0.00 | 1.04 | 0.25 | 98 | 1013.4 | |
| 20260505115616 | 12 | 0.0 | 0.0 | 0.00 | 1.04 | 0.25 | 98 | 1013.4 | |
| 20260505115116 | 12 | 0.0 | 0.0 | 0.00 | 1.04 | 0.25 | 98 | 1013.4 | |
| 20260505114616 | 12 | 0.0 | 0.0 | 0.00 | 1.04 | 0.25 | 98 | 1013.4 | |
| 20260505114116 | 12 | 0.0 | 0.0 | 0.00 | 1.04 | 0.25 | 98 | 1013.4 | |
| 20260505113617 | 12 | 0.0 | 0.0 | 0.05 | 1.04 | 0.25 | 98 | 1013.4 | |
| 20260505113116 | 12 | 0.0 | 0.0 | 0.05 | 1.04 | 0.25 | 98 | 1013.4 | |
| 20260505112616 | 12 | 0.0 | 0.0 | 0.05 | 1.04 | 0.25 | 98 | 1013.4 | |
| 20260505112116 | 12 | 0.0 | 1.6 | 0.05 | 1.04 | 0.25 | 98 | 1013.5 | |
| 20260505111617 | 12 | 58 | 1.6 | 4.8 | 0.05 | 1.04 | 0.25 | 98 | 1013.5 |
| 20260505111136 | 12 | 0.0 | 1.6 | 0.05 | 1.04 | 0.25 | 98 | 1013.5 | |
| 20260505110617 | 12 | 35 | 1.6 | 1.6 | 0.05 | 1.04 | 0.25 | 98 | 1013.6 |
| 20260505110116 | 12 | 0.0 | 0.0 | 0.05 | 1.04 | 0.25 | 98 | 1013.5 | |
| 20260505102137 | 12 | 0.0 | 0.0 | 0.05 | 0.99 | 0.20 | 98 | 1013.5 | |
| 20260505101616 | 12 | 0.0 | 0.0 | 0.05 | 0.99 | 0.20 | 98 | 1013.5 | |
| 20260505101116 | 12 | 0.0 | 0.0 | 0.05 | 0.99 | 0.20 | 98 | 1013.5 | |
| 20260505100616 | 12 | 0.0 | 1.6 | 0.05 | 0.99 | 0.20 | 98 | 1013.4 | |
| 20260505100116 | 12 | 0.0 | 0.0 | 0.05 | 0.99 | 0.20 | 98 | 1013.5 | |
| 20260505095616 | 13 | 0.0 | 0.0 | 0.05 | 0.99 | 0.20 | 98 | 1013.5 | |
| 20260505095136 | 13 | 0.0 | 0.0 | 0.05 | 0.99 | 0.20 | 98 | 1013.5 | |
| 20260505094616 | 13 | 0.0 | 0.0 | 0.05 | 0.99 | 0.20 | 98 | 1013.6 | |
| 20260505094116 | 13 | 0.0 | 0.0 | 0.03 | 0.97 | 0.18 | 98 | 1013.7 | |
| 20260505093616 | 12 | 0.0 | 1.6 | 0.00 | 0.94 | 0.15 | 98 | 1013.8 | |
| 20260505093116 | 12 | 148 | 1.6 | 3.2 | 0.00 | 0.94 | 0.15 | 98 | 1013.8 |
| 20260505092616 | 12 | 0.0 | 1.6 | 0.00 | 0.94 | 0.15 | 98 | 1013.8 | |
| 20260505092116 | 13 | 148 | 3.2 | 4.8 | 0.00 | 0.94 | 0.15 | 98 | 1014.0 |
| 20260505091616 | 12 | 0.0 | 0.0 | 0.00 | 0.94 | 0.15 | 98 | 1014.0 | |
| 20260505091116 | 12 | 170 | 3.2 | 4.8 | 0.00 | 0.94 | 0.15 | 98 | 1014.1 |
| 20260505090616 | 12 | 170 | 1.6 | 3.2 | 0.00 | 0.94 | 0.15 | 98 | 1014.1 |
| 20260505090116 | 12 | 148 | 1.6 | 3.2 | 0.00 | 0.94 | 0.15 | 98 | 1014.2 |
| 20260505085616 | 12 | 148 | 1.6 | 1.6 | 0.00 | 0.94 | 0.15 | 98 | 1014.1 |
| 20260505085116 | 12 | 148 | 3.2 | 3.2 | 0.00 | 0.94 | 0.15 | 97 | 1014.2 |
| 20260505084616 | 12 | 125 | 3.2 | 3.2 | 0.00 | 0.94 | 0.15 | 97 | 1014.2 |
| 20260505084116 | 12 | 148 | 1.6 | 3.2 | 0.03 | 0.94 | 0.15 | 97 | 1014.2 |
| 20260505083616 | 12 | 125 | 1.6 | 1.6 | 0.05 | 0.94 | 0.15 | 97 | 1014.2 |
| 20260505083116 | 12 | 125 | 1.6 | 3.2 | 0.10 | 0.94 | 0.15 | 97 | 1014.3 |
| 20260505082616 | 12 | 125 | 1.6 | 3.2 | 0.10 | 0.94 | 0.15 | 97 | 1014.3 |
| 20260505082136 | 12 | 148 | 4.8 | 8.0 | 0.10 | 0.94 | 0.15 | 97 | 1014.4 |
| 20260505081616 | 12 | 125 | 4.8 | 6.4 | 0.13 | 0.94 | 0.15 | 97 | 1014.5 |
| 20260505081116 | 12 | 125 | 3.2 | 4.8 | 0.13 | 0.94 | 0.15 | 97 | 1014.5 |
| 20260505080616 | 12 | 125 | 3.2 | 4.8 | 0.13 | 0.94 | 0.15 | 97 | 1014.5 |
| 20260505080116 | 13 | 148 | 1.6 | 4.8 | 0.13 | 0.94 | 0.15 | 97 | 1014.6 |
| 20260505075636 | 13 | 148 | 1.6 | 1.6 | 0.15 | 0.94 | 0.15 | 97 | 1014.5 |
| 20260505075116 | 13 | 125 | 3.2 | 4.8 | 0.20 | 0.94 | 0.15 | 97 | 1014.5 |
| 20260505074616 | 12 | 125 | 6.4 | 8.0 | 0.28 | 0.94 | 0.15 | 97 | 1014.6 |
| 20260505074156 | 12 | 125 | 3.2 | 6.4 | 0.28 | 0.91 | 0.13 | 97 | 1014.7 |
| 20260505073630 | 12 | 148 | 4.8 | 6.4 | 0.25 | 0.89 | 0.10 | 97 | 1014.9 |
| 20260505073610 | 12 | 125 | 3.2 | 4.8 | 0.28 | 0.84 | 0.05 | 97 | 1014.8 |
| 20260505072856 | 12 | 148 | 3.2 | 8.0 | 0.28 | 0.84 | 0.05 | 97 | 1014.8 |
| 20260505072336 | 12 | 103 | 3.2 | 4.8 | 0.33 | 0.84 | 0.05 | 97 | 1014.8 |
| 20260505071816 | 12 | 125 | 3.2 | 3.2 | 0.38 | 0.84 | 0.05 | 97 | 1014.8 |
| 20260505071336 | 13 | 125 | 1.6 | 3.2 | 0.38 | 0.81 | 0.03 | 97 | 1014.8 |
| 20260505070836 | 13 | 125 | 4.8 | 6.4 | 0.41 | 0.81 | 0.03 | 97 | 1014.8 |
| 20260505070316 | 12 | 0.0 | 1.6 | 0.51 | 0.81 | 0.03 | 97 | 1014.8 | |
| 20260505065836 | 12 | 0.0 | 1.6 | 0.56 | 0.79 | 0.79 | 97 | 1014.8 | |
| 20260505065316 | 12 | 0.0 | 1.6 | 0.56 | 0.76 | 0.76 | 97 | 1014.8 | |
| 20260505064816 | 12 | 0.0 | 1.6 | 0.53 | 0.71 | 0.71 | 97 | 1014.8 | |
| 20260505064317 | 13 | 103 | 1.6 | 3.2 | 0.51 | 0.66 | 0.66 | 97 | 1014.9 |
| 20260505063816 | 13 | 0.0 | 1.6 | 0.51 | 0.64 | 0.64 | 97 | 1014.8 | |
| 20260505063316 | 13 | 148 | 3.2 | 4.8 | 0.46 | 0.58 | 0.58 | 97 | 1014.8 |
| 20260505062817 | 13 | 148 | 3.2 | 3.2 | 0.43 | 0.56 | 0.56 | 97 | 1014.8 |
| 20260505062316 | 13 | 148 | 3.2 | 4.8 | 0.41 | 0.51 | 0.51 | 97 | 1014.8 |
| 20260505061816 | 13 | 125 | 3.2 | 3.2 | 0.38 | 0.46 | 0.46 | 97 | 1014.7 |
| 20260505061316 | 13 | 125 | 3.2 | 3.2 | 0.36 | 0.43 | 0.43 | 97 | 1014.8 |
| 20260505060816 | 13 | 125 | 3.2 | 3.2 | 0.33 | 0.41 | 0.41 | 97 | 1014.8 |
| 20260505060316 | 13 | 0.0 | 1.6 | 0.23 | 0.30 | 0.30 | 97 | 1014.9 | |
| 20260505055816 | 13 | 125 | 3.2 | 3.2 | 0.15 | 0.23 | 0.23 | 97 | 1014.9 |
| 20260505055437 | 13 | 148 | 1.6 | 3.2 | 0.13 | 0.20 | 0.20 | 97 | 1014.8 |
| 20260505054816 | 13 | 148 | 1.6 | 1.6 | 0.10 | 0.18 | 0.18 | 97 | 1014.9 |
| 20260505054316 | 13 | 0.0 | 1.6 | 0.08 | 0.15 | 0.15 | 97 | 1014.8 | |
| 20260505053816 | 13 | 148 | 3.2 | 4.8 | 0.05 | 0.13 | 0.13 | 97 | 1014.9 |
| 20260505053316 | 13 | 125 | 3.2 | 4.8 | 0.05 | 0.13 | 0.13 | 97 | 1014.9 |
| 20260505052816 | 13 | 148 | 1.6 | 3.2 | 0.05 | 0.13 | 0.13 | 97 | 1014.9 |
| 20260505052316 | 13 | 170 | 1.6 | 3.2 | 0.03 | 0.10 | 0.10 | 97 | 1014.9 |
| 20260505051816 | 13 | 170 | 3.2 | 4.8 | 0.00 | 0.08 | 0.08 | 97 | 1014.9 |
| 20260505051316 | 13 | 125 | 1.6 | 3.2 | 0.00 | 0.08 | 0.08 | 97 | 1015.0 |
| 20260505050816 | 13 | 170 | 3.2 | 4.8 | 0.00 | 0.08 | 0.08 | 97 | 1015.0 |
| 20260505050316 | 13 | 0.0 | 0.0 | 0.00 | 0.08 | 0.08 | 97 | 1015.1 | |
| 20260505041316 | 13 | 0.0 | 0.0 | 0.00 | 0.08 | 0.08 | 97 | 1015.2 | |
| 20260505040816 | 13 | 0.0 | 0.0 | 0.00 | 0.08 | 0.08 | 97 | 1015.2 | |
| 20260505040316 | 13 | 0.0 | 1.6 | 0.00 | 0.08 | 0.08 | 96 | 1015.1 | |
| 20260505035816 | 13 | 238 | 1.6 | 1.6 | 0.00 | 0.08 | 0.08 | 96 | 1015.1 |
| 20260505035316 | 13 | 0.0 | 1.6 | 0.00 | 0.08 | 0.08 | 96 | 1015.0 | |
| 20260505034816 | 13 | 0.0 | 1.6 | 0.00 | 0.08 | 0.08 | 96 | 1015.0 | |
| 20260505034316 | 13 | 238 | 4.8 | 6.4 | 0.00 | 0.08 | 0.08 | 96 | 1014.9 |
| 20260505033816 | 13 | 0.0 | 1.6 | 0.00 | 0.08 | 0.08 | 96 | 1014.9 | |
| 20260505033316 | 13 | 215 | 3.2 | 6.4 | 0.00 | 0.08 | 0.08 | 96 | 1014.9 |
| 20260505032816 | 13 | 193 | 3.2 | 4.8 | 0.00 | 0.08 | 0.08 | 96 | 1014.8 |
| 20260505032316 | 13 | 238 | 3.2 | 4.8 | 0.03 | 0.08 | 0.08 | 96 | 1014.7 |
| 20260505031836 | 13 | 238 | 3.2 | 6.4 | 0.05 | 0.08 | 0.08 | 96 | 1014.7 |
| 20260505031316 | 13 | 238 | 3.2 | 6.4 | 0.08 | 0.08 | 0.08 | 96 | 1014.7 |
| 20260505030816 | 13 | 215 | 4.8 | 8.0 | 0.08 | 0.08 | 0.08 | 95 | 1014.6 |
| 20260505030316 | 13 | 148 | 3.2 | 11.3 | 0.08 | 0.08 | 0.08 | 95 | 1014.7 |
| 20260505025816 | 13 | 238 | 4.8 | 9.7 | 0.08 | 0.08 | 0.08 | 95 | 1014.7 |
| 20260505025316 | 13 | 170 | 4.8 | 9.7 | 0.08 | 0.08 | 0.08 | 95 | 1014.7 |
| 20260505024816 | 13 | 238 | 1.6 | 4.8 | 0.08 | 0.08 | 0.08 | 95 | 1014.6 |
| 20260505024316 | 13 | 170 | 4.8 | 9.7 | 0.08 | 0.08 | 0.08 | 95 | 1014.6 |
| 20260505023816 | 13 | 170 | 1.6 | 3.2 | 0.08 | 0.08 | 0.08 | 94 | 1014.7 |
| 20260505023316 | 14 | 148 | 6.4 | 9.7 | 0.08 | 0.08 | 0.08 | 94 | 1014.7 |
| 20260505022816 | 14 | 170 | 4.8 | 8.0 | 0.08 | 0.08 | 0.08 | 92 | 1014.8 |
| 20260505022316 | 15 | 170 | 6.4 | 11.3 | 0.05 | 0.05 | 0.05 | 89 | 1014.8 |
| 20260505021816 | 16 | 148 | 6.4 | 11.3 | 0.03 | 0.03 | 0.03 | 81 | 1014.7 |
| 20260505021316 | 16 | 215 | 6.4 | 12.9 | 0.00 | 0.00 | 0.00 | 76 | 1014.6 |
| 20260505020816 | 16 | 238 | 6.4 | 12.9 | 0.00 | 0.00 | 0.00 | 73 | 1014.6 |
| 20260505020316 | 17 | 170 | 3.2 | 3.2 | 0.00 | 0.00 | 0.00 | 73 | 1014.5 |
| 20260505015816 | 17 | 283 | 1.6 | 1.6 | 0.00 | 0.00 | 0.00 | 71 | 1014.5 |
| 20260505015316 | 17 | 260 | 6.4 | 8.0 | 0.00 | 0.00 | 0.00 | 67 | 1014.5 |
| 20260505014816 | 17 | 260 | 8.0 | 11.3 | 0.00 | 0.00 | 0.00 | 66 | 1014.5 |
| 20260505014316 | 17 | 260 | 3.2 | 6.4 | 0.00 | 0.00 | 0.00 | 65 | 1014.4 |
| 20260505013856 | 17 | 260 | 9.7 | 14.5 | 0.00 | 0.00 | 0.00 | 66 | 1014.5 |
| 20260505013316 | 17 | 283 | 11.3 | 16.1 | 0.00 | 0.00 | 0.00 | 65 | 1014.5 |
| 20260505012816 | 17 | 283 | 6.4 | 12.9 | 0.00 | 0.00 | 0.00 | 67 | 1014.5 |
| 20260505012316 | 17 | 283 | 8.0 | 11.3 | 0.00 | 0.00 | 0.00 | 66 | 1014.4 |
| 20260505011856 | 17 | 283 | 11.3 | 12.9 | 0.00 | 0.00 | 0.00 | 67 | 1014.4 |
| 20260505011316 | 17 | 283 | 9.7 | 12.9 | 0.00 | 0.00 | 0.00 | 67 | 1014.5 |
| 20260505010816 | 17 | 260 | 9.7 | 14.5 | 0.00 | 0.00 | 0.00 | 67 | 1014.5 |
| 20260505010316 | 17 | 260 | 9.7 | 12.9 | 0.00 | 0.00 | 0.00 | 68 | 1014.6 |
| 20260505005816 | 17 | 283 | 9.7 | 12.9 | 0.00 | 0.00 | 0.00 | 67 | 1014.5 |
| 20260505005316 | 17 | 283 | 9.7 | 16.1 | 0.00 | 0.00 | 0.00 | 68 | 1014.6 |
| 20260505004816 | 17 | 260 | 12.9 | 17.7 | 0.00 | 0.00 | 0.00 | 68 | 1014.6 |
| 20260505004316 | 17 | 260 | 11.3 | 14.5 | 0.00 | 0.00 | 0.00 | 67 | 1014.7 |
| 20260505003816 | 17 | 283 | 12.9 | 17.7 | 0.00 | 0.00 | 0.00 | 67 | 1014.7 |
| 20260505003316 | 17 | 260 | 9.7 | 14.5 | 0.00 | 0.00 | 0.00 | 67 | 1014.7 |
| 20260505002836 | 17 | 260 | 8.0 | 9.7 | 0.00 | 0.00 | 0.00 | 68 | 1014.7 |
| 20260505002316 | 17 | 283 | 12.9 | 19.3 | 0.00 | 0.00 | 0.00 | 67 | 1014.8 |
| 20260505001816 | 17 | 260 | 12.9 | 16.1 | 0.00 | 0.00 | 0.00 | 66 | 1014.8 |
| 20260505001316 | 18 | 283 | 11.3 | 16.1 | 0.00 | 0.00 | 0.00 | 64 | 1014.8 |
| 20260505000816 | 18 | 283 | 11.3 | 14.5 | 0.00 | 0.00 | 0.00 | 65 | 1014.7 |
| 20260505000316 | 18 | 283 | 9.7 | 14.5 | 0.00 | 0.00 | 0.00 | 64 | 1014.7 |
| 20260504235816 | 17 | 260 | 16.1 | 24.1 | 0.00 | 0.00 | 0.00 | 62 | 1014.7 |
| 20260504235315 | 18 | 260 | 14.5 | 17.7 | 0.00 | 0.00 | 0.00 | 63 | 1014.7 |
| 20260504234815 | 18 | 283 | 9.7 | 14.5 | 0.00 | 0.00 | 0.00 | 63 | 1014.7 |
| 20260504234316 | 18 | 260 | 14.5 | 19.3 | 0.00 | 0.00 | 0.00 | 63 | 1014.5 |
| 20260504233836 | 18 | 260 | 12.9 | 19.3 | 0.00 | 0.00 | 0.00 | 63 | 1014.6 |
| 20260504233316 | 18 | 283 | 12.9 | 19.3 | 0.00 | 0.00 | 0.00 | 62 | 1014.5 |
| 20260504232816 | 18 | 260 | 11.3 | 16.1 | 0.00 | 0.00 | 0.00 | 63 | 1014.4 |
| 20260504232316 | 18 | 283 | 12.9 | 20.9 | 0.00 | 0.00 | 0.00 | 63 | 1014.5 |
| 20260504231815 | 18 | 283 | 12.9 | 22.5 | 0.00 | 0.00 | 0.00 | 62 | 1014.5 |
| 20260504231336 | 18 | 283 | 12.9 | 22.5 | 0.00 | 0.00 | 0.00 | 61 | 1014.5 |
| 20260504230816 | 18 | 283 | 17.7 | 27.4 | 0.00 | 0.00 | 0.00 | 61 | 1014.5 |
| 20260504230356 | 18 | 283 | 16.1 | 24.1 | 0.00 | 0.00 | 0.00 | 63 | 1014.5 |
| 20260504225815 | 18 | 283 | 9.7 | 19.3 | 0.00 | 0.00 | 0.00 | 64 | 1014.6 |
| 20260504225336 | 18 | 283 | 11.3 | 16.1 | 0.00 | 0.00 | 0.00 | 62 | 1014.7 |
| 20260504224815 | 18 | 283 | 11.3 | 17.7 | 0.00 | 0.00 | 0.00 | 63 | 1014.7 |
| 20260504224315 | 18 | 283 | 16.1 | 22.5 | 0.00 | 0.00 | 0.00 | 62 | 1014.9 |
| 20260504223815 | 18 | 283 | 14.5 | 19.3 | 0.00 | 0.00 | 0.00 | 63 | 1014.7 |
| 20260504223316 | 19 | 260 | 14.5 | 25.7 | 0.00 | 0.00 | 0.00 | 62 | 1014.8 |
| 20260504222815 | 19 | 283 | 16.1 | 24.1 | 0.00 | 0.00 | 0.00 | 61 | 1014.9 |
| 20260504222356 | 20 | 260 | 9.7 | 17.7 | 0.00 | 0.00 | 0.00 | 60 | 1014.8 |
| 20260504221815 | 19 | 260 | 14.5 | 25.7 | 0.00 | 0.00 | 0.00 | 60 | 1014.9 |
| 20260504221316 | 19 | 260 | 16.1 | 22.5 | 0.00 | 0.00 | 0.00 | 59 | 1014.9 |
| 20260504220816 | 19 | 260 | 16.1 | 24.1 | 0.00 | 0.00 | 0.00 | 58 | 1015.0 |
| 20260504220315 | 19 | 260 | 12.9 | 19.3 | 0.00 | 0.00 | 0.00 | 58 | 1015.0 |
| 20260504215815 | 19 | 283 | 9.7 | 16.1 | 0.00 | 0.00 | 0.00 | 59 | 1015.1 |
| 20260504215315 | 19 | 260 | 19.3 | 25.7 | 0.00 | 0.00 | 0.00 | 60 | 1015.1 |
| 20260504214836 | 19 | 260 | 12.9 | 22.5 | 0.00 | 0.00 | 0.00 | 60 | 1015.1 |
| 20260504214316 | 19 | 283 | 12.9 | 20.9 | 0.00 | 0.00 | 0.00 | 60 | 1015.2 |
| 20260504213816 | 20 | 260 | 9.7 | 14.5 | 0.00 | 0.00 | 0.00 | 58 | 1015.2 |
| 20260504213315 | 20 | 260 | 12.9 | 19.3 | 0.00 | 0.00 | 0.00 | 57 | 1015.2 |
| 20260504212816 | 20 | 260 | 11.3 | 20.9 | 0.00 | 0.00 | 0.00 | 58 | 1015.3 |
| 20260504212315 | 20 | 260 | 9.7 | 22.5 | 0.00 | 0.00 | 0.00 | 56 | 1015.3 |
| 20260504211816 | 20 | 238 | 9.7 | 14.5 | 0.00 | 0.00 | 0.00 | 55 | 1015.3 |
| 20260504211315 | 20 | 215 | 12.9 | 17.7 | 0.00 | 0.00 | 0.00 | 56 | 1015.4 |
| 20260504210816 | 20 | 283 | 11.3 | 17.7 | 0.00 | 0.00 | 0.00 | 56 | 1015.3 |
| 20260504210335 | 20 | 260 | 8.0 | 14.5 | 0.00 | 0.00 | 0.00 | 57 | 1015.3 |
| 20260504205815 | 20 | 283 | 12.9 | 20.9 | 0.00 | 0.00 | 0.00 | 57 | 1015.2 |
| 20260504205315 | 20 | 283 | 14.5 | 22.5 | 0.00 | 0.00 | 0.00 | 57 | 1015.2 |
| 20260504204816 | 20 | 260 | 9.7 | 16.1 | 0.00 | 0.00 | 0.00 | 58 | 1015.3 |
| 20260504204315 | 20 | 283 | 11.3 | 20.9 | 0.00 | 0.00 | 0.00 | 57 | 1015.3 |
| 20260504203815 | 20 | 283 | 12.9 | 19.3 | 0.00 | 0.00 | 0.00 | 56 | 1015.3 |
| 20260504203315 | 20 | 260 | 9.7 | 14.5 | 0.00 | 0.00 | 0.00 | 55 | 1015.3 |
| 20260504202835 | 20 | 283 | 9.7 | 17.7 | 0.00 | 0.00 | 0.00 | 52 | 1015.3 |
| 20260504202315 | 20 | 283 | 11.3 | 14.5 | 0.00 | 0.00 | 0.00 | 52 | 1015.3 |
| 20260504201815 | 20 | 283 | 9.7 | 12.9 | 0.00 | 0.00 | 0.00 | 51 | 1015.3 |
| 20260504201335 | 20 | 260 | 6.4 | 9.7 | 0.00 | 0.00 | 0.00 | 51 | 1015.5 |
| 20260504200816 | 20 | 260 | 12.9 | 20.9 | 0.00 | 0.00 | 0.00 | 51 | 1015.5 |
| 20260504200316 | 20 | 283 | 16.1 | 20.9 | 0.00 | 0.00 | 0.00 | 51 | 1015.5 |
| 20260504195815 | 20 | 283 | 9.7 | 14.5 | 0.00 | 0.00 | 0.00 | 50 | 1015.4 |
| 20260504195335 | 20 | 283 | 6.4 | 11.3 | 0.00 | 0.00 | 0.00 | 52 | 1015.5 |
| 20260504194815 | 20 | 305 | 8.0 | 14.5 | 0.00 | 0.00 | 0.00 | 53 | 1015.6 |
| 20260504194315 | 20 | 260 | 11.3 | 17.7 | 0.00 | 0.00 | 0.00 | 54 | 1015.7 |
| 20260504193815 | 20 | 283 | 8.0 | 12.9 | 0.00 | 0.00 | 0.00 | 54 | 1015.6 |
| 20260504193315 | 19 | 283 | 4.8 | 8.0 | 0.00 | 0.00 | 0.00 | 55 | 1015.7 |
| 20260504192816 | 19 | 260 | 9.7 | 12.9 | 0.00 | 0.00 | 0.00 | 52 | 1015.8 |
| 20260504192335 | 20 | 283 | 4.8 | 8.0 | 0.00 | 0.00 | 0.00 | 51 | 1015.9 |
| 20260504191815 | 20 | 260 | 8.0 | 14.5 | 0.00 | 0.00 | 0.00 | 52 | 1015.9 |
| 20260504191315 | 19 | 283 | 6.4 | 12.9 | 0.00 | 0.00 | 0.00 | 52 | 1015.8 |
| 20260504190815 | 19 | 283 | 8.0 | 12.9 | 0.00 | 0.00 | 0.00 | 51 | 1015.9 |
| 20260504190335 | 19 | 260 | 9.7 | 14.5 | 0.00 | 0.00 | 0.00 | 53 | 1015.8 |
| 20260504185815 | 19 | 283 | 12.9 | 17.7 | 0.00 | 0.00 | 0.00 | 54 | 1015.8 |
| 20260504185315 | 19 | 260 | 9.7 | 12.9 | 0.00 | 0.00 | 0.00 | 55 | 1016.0 |
| 20260504184815 | 19 | 260 | 9.7 | 17.7 | 0.00 | 0.00 | 0.00 | 55 | 1016.0 |
| 20260504184335 | 19 | 260 | 6.4 | 9.7 | 0.00 | 0.00 | 0.00 | 54 | 1016.0 |
| 20260504183815 | 19 | 283 | 11.3 | 16.1 | 0.00 | 0.00 | 0.00 | 54 | 1016.0 |
| 20260504183315 | 19 | 260 | 6.4 | 16.1 | 0.00 | 0.00 | 0.00 | 53 | 1015.9 |
| 20260504182815 | 19 | 260 | 8.0 | 12.9 | 0.00 | 0.00 | 0.00 | 53 | 1016.0 |
| 20260504182317 | 19 | 260 | 8.0 | 14.5 | 0.00 | 0.00 | 0.00 | 51 | 1016.0 |
| 20260504181817 | 19 | 238 | 11.3 | 16.1 | 0.00 | 0.00 | 0.00 | 55 | 1016.1 |
| 20260504181315 | 18 | 305 | 9.7 | 14.5 | 0.00 | 0.00 | 0.00 | 55 | 1016.1 |
| 20260504180817 | 18 | 283 | 8.0 | 16.1 | 0.00 | 0.00 | 0.00 | 56 | 1016.0 |
| 20260504180317 | 18 | 260 | 12.9 | 16.1 | 0.00 | 0.00 | 0.00 | 56 | 1016.0 |
| 20260504175817 | 19 | 260 | 14.5 | 24.1 | 0.00 | 0.00 | 0.00 | 56 | 1016.1 |
| 20260504175316 | 18 | 305 | 4.8 | 8.0 | 0.00 | 0.00 | 0.00 | 55 | 1016.0 |
| 20260504174817 | 18 | 260 | 11.3 | 17.7 | 0.00 | 0.00 | 0.00 | 56 | 1016.0 |
| 20260504174337 | 18 | 260 | 9.7 | 16.1 | 0.00 | 0.00 | 0.00 | 54 | 1015.9 |
| 20260504173817 | 18 | 305 | 8.0 | 16.1 | 0.00 | 0.00 | 0.00 | 55 | 1015.9 |
| 20260504173317 | 18 | 260 | 9.7 | 16.1 | 0.00 | 0.00 | 0.00 | 57 | 1015.8 |
| 20260504172817 | 18 | 283 | 9.7 | 19.3 | 0.00 | 0.00 | 0.00 | 55 | 1015.8 |
| 20260504172337 | 18 | 260 | 6.4 | 9.7 | 0.00 | 0.00 | 0.00 | 58 | 1015.7 |
| 20260504171818 | 18 | 260 | 9.7 | 16.1 | 0.00 | 0.00 | 0.00 | 59 | 1015.8 |
| 20260504171317 | 18 | 238 | 9.7 | 12.9 | 0.00 | 0.00 | 0.00 | 60 | 1015.7 |
| 20260504170817 | 18 | 283 | 9.7 | 12.9 | 0.00 | 0.00 | 0.00 | 59 | 1015.7 |
| 20260504170317 | 17 | 215 | 8.0 | 11.3 | 0.00 | 0.00 | 0.00 | 61 | 1015.8 |
| 20260504160317 | 17 | 283 | 8.0 | 11.3 | 0.00 | 0.00 | 0.00 | 64 | 1015.5 |
| 20260504150817 | 15 | 260 | 4.8 | 6.4 | 0.00 | 0.00 | 0.00 | 73 | 1015.3 |
| 20260504150337 | 15 | 260 | 3.2 | 8.0 | 0.00 | 0.00 | 0.00 | 74 | 1015.3 |